Regional Weather Roundup
Issued by NWS

Home | Current Version | Previous Version | Graphics & Text | Print | Product List | Glossary On
Versions: 1 2 3 4 5 6 7 8 9 10 11 12 13 14 15 16 17 18 19 20 21 22 23 24 25 26 27 28 29 30 31 32 33 34 35 36 37 38 39 40 41 42 43 44 45 46 47 48 49 50
000
ASUS45 KABQ 272210
RWRNM
NEW MEXICO REGIONAL WEATHER ROUNDUP
NATIONAL WEATHER SERVICE ALBUQUERQUE NM
400 PM MDT WED JUL 27 2016

NOTE: "FAIR" MEANS FEW OR NO CLOUDS BELOW 12,000 FEET AGL WITH NO
       SIGNIFICANT WEATHER OR OBSTRUCTIONS TO VISION.

      THIS PRODUCT IS RELEASED AS TWO VERSIONS.  ONE VERSION NEAR
      THE TOP OF THE HOUR CONTAINING PRELIMINARY DATA FROM ALBUQUERQUE
      AND OTHER STATIONS.  A FINAL VERSION WITH ADDITIONAL DATA IS
      ISSUED ABOUT 10 MINUTES AFTER THE HOUR.

NMZ501-503-504-510>518-272300-
NORTHWEST PLATEAU/NORTHCENTRAL MOUNTAINS

CITY           SKY/WX    TMP DP  RH WIND       PRES   REMARKS
FARMINGTON     FAIR      95  39  14 SW12G20   30.11F
LOS ALAMOS     FAIR      87  34  14 N8G17     30.27F
SANTA FE       FAIR      85  49  28 E22G35    30.20R
TAOS           FAIR      88  43  20 SE16G22   30.27F
ANGEL FIRE     FAIR      76  43  30 SW6       30.40F

$$
NMZ402-403-502-505>509-272300-
WESTCENTRAL MOUNTAINS/SOUTHWEST MOUNTAINS

CITY           SKY/WX    TMP DP  RH WIND       PRES   REMARKS
GALLUP         FAIR      94  30  10 NE16G28   30.23F
GRANTS         FAIR      91  34  13 N13G22    30.23F
SILVER CITY    FAIR      74  59  58 CALM      30.15F

$$
NMZ407-409-411-412-272300-
SOUTHERN DESERTS

CITY           SKY/WX    TMP DP  RH WIND       PRES   REMARKS
LORDSBURG      LGT RAIN  77  61  57 E21G32    30.06R
DEMING         FAIR      77  64  64 SW8       30.07F
LAS CRUCES     FAIR      91  52  26 E8        30.08F
HOLLOMAN AFB   FAIR      92  56  29 E3        30.02F
ALAMOGORDO     FAIR      90  54  29 S8        30.06F
T OR C         FAIR      93  51  23 NE10      30.08F

$$
NMZ519>523-272300-
CENTRAL VALLEYS/CENTRAL HIGHLANDS

CITY           SKY/WX    TMP DP  RH WIND       PRES   REMARKS
ALBUQUERQUE    FAIR      93  50  23 W6        30.13F
MORIARTY ARPT  PTSUNNY   88  41  19 S7        30.21F
CLINES CORNERS FAIR      84  47  27 CALM      30.29F
BELEN          FAIR      91  46  20 N3G9      30.12F
SOCORRO        FAIR      93  49  22 E6        30.10F

$$
NMZ524>526-539-540-272300-
SOUTHCENTRAL MOUNTAINS

CITY           SKY/WX    TMP DP  RH WIND       PRES   REMARKS
RUIDOSO          N/A     79  48  34 SE10      30.29F

$$
NMZ527>531-272300-
NORTHEAST HIGHLANDS/NORTHEAST PLAINS

CITY           SKY/WX    TMP DP  RH WIND       PRES   REMARKS
LAS VEGAS      TSTM      77  48  35 W25       30.28R
RATON          FAIR      85  48  27 SW10      30.21F
CLAYTON        FAIR      81  60  48 N12       30.15S

$$
NMZ532>537-272300-
EASTCENTRAL PLAINS

CITY           SKY/WX    TMP DP  RH WIND       PRES   REMARKS
TUCUMCARI      FAIR      96  47  18 W8        30.02F
CANNON AFB     FAIR      84  57  40 SE13      30.10S
CLOVIS AIRPORT FAIR      81  57  44 S12       30.11R

$$
NMZ028-029-538-272300-
SOUTHEAST PLAINS

CITY           SKY/WX    TMP DP  RH WIND       PRES   REMARKS
ROSWELL        FAIR      96  51  21 VRB3      30.00F
ARTESIA        FAIR      97  55  24 SE16G22   30.00F HX  95
CARLSBAD       FAIR      95  52  23 VRB6      29.97F
HOBBS          MOSUNNY   93  48  21 E13       30.03F


$$



USA.gov is the U.S. government's official web portal to all federal, state and local government web resources and services.